Homer, AK

6:18 PM AKST on November 18, 2017 (GMT -0900)
Homer

Weather History for PAHO - May, 2014

Change the Weather History Date:

Saturday, May 10, 2014

  Actual Average Record
Temperature  
Mean Temperature 54 °F -  
Max Temperature 66 °F 48 °F 66 °F (2014)
Min Temperature 41 °F 35 °F 15 °F (1964)
Degree Days  
Heating Degree Days 12    
Growing Degree Days 4 (Base 50)    
Moisture  
Dew Point 31 °F    
Average Humidity 42    
Maximum Humidity 65    
Minimum Humidity 22    
Precipitation  
Precipitation 0.00 in - - ()
Sea Level Pressure  
Sea Level Pressure 30.17 in    
Wind  
Wind Speed 3 mph (South)    
Max Wind Speed 10 mph    
Max Gust Speed -    
Visibility 10 miles    
Events      
Averages and records for this station are not official NWS values.
T = Trace of Precipitation, MM = Missing Value Source: NWS Daily Summary

Daily Weather History Graph

Daily Weather History Graph

Search for Another Location

Airport or City:

Trip Planner

Search our weather history database for the weather conditions in past years. The results will help you decide how hot, cold, wet, or windy it might be!

Date:

Astronomy

May. 10, 2014 Rise Set
Actual Time 5:41 AM AKDT 10:24 PM AKDT
Civil Twilight 4:43 AM AKDT 11:23 PM AKDT
Nautical Twilight 2:53 AM AKDT 1:21 AM AKDT
Astronomical Twilight Sun does not rise Sun does not rise
Moon 5:29 PM AKDT (5/10) 4:28 AM AKDT (5/10)
Length of Visible Light 18h 39m
Length of Day
16h 42m
Waxing Gibbous, 83% of the Moon is Illuminated
May 10
Waxing Gibbous
May 14
Full
May 21
Last Quarter
May 28
New
Jun 5
First Quarter

Hourly Weather History & Observations

Time (AKDT) Temp. Windchill Dew Point Humidity Pressure Visibility Wind Dir Wind Speed Gust Speed Precip Events Conditions
12:53 AM 46.0 °F - 28.0 °F 50% 30.12 in 10.0 mi Calm Calm - N/A   Clear
1:53 AM 45.0 °F - 28.9 °F 53% 30.12 in 10.0 mi Calm Calm - N/A   Clear
3:53 AM 45.0 °F 41.8 °F 33.1 °F 63% 30.14 in 10.0 mi ENE 5.8 mph - N/A   Clear
4:53 AM 44.1 °F 41.5 °F 33.1 °F 65% 30.15 in 10.0 mi East 4.6 mph - N/A   Clear
5:53 AM 41.0 °F 38.0 °F 30.0 °F 65% 30.16 in 10.0 mi ESE 4.6 mph - N/A   Clear
6:53 AM 42.1 °F - 30.9 °F 65% 30.17 in 10.0 mi Calm Calm - N/A   Clear
7:53 AM 50.0 °F - 33.1 °F 52% 30.17 in 10.0 mi East 8.1 mph - N/A   Clear
8:53 AM 52.0 °F - 33.1 °F 49% 30.18 in 10.0 mi ESE 5.8 mph - N/A   Clear
9:53 AM 54.0 °F - 32.0 °F 43% 30.18 in 10.0 mi Calm Calm - N/A   Clear
10:53 AM 55.9 °F - 33.1 °F 42% 30.18 in 10.0 mi Calm Calm - N/A   Clear
11:53 AM 57.9 °F - 28.0 °F 32% 30.18 in 10.0 mi SW 4.6 mph - N/A   Clear
12:53 PM 60.1 °F - 26.1 °F 27% 30.18 in 10.0 mi SW 5.8 mph - N/A   Clear
1:53 PM 62.1 °F - 28.0 °F 28% 30.18 in 10.0 mi Calm Calm - N/A   Clear
2:53 PM 63.0 °F - 27.0 °F 26% 30.17 in 10.0 mi West 4.6 mph - N/A   Clear
3:53 PM 64.9 °F - 27.0 °F 24% 30.17 in 10.0 mi SW 6.9 mph - N/A   Clear
4:53 PM 66.9 °F - 27.0 °F 22% 30.17 in 10.0 mi SSW 6.9 mph - N/A   Clear
5:53 PM 64.9 °F - 36.0 °F 34% 30.17 in 10.0 mi SW 5.8 mph - N/A   Clear
6:53 PM 60.1 °F - 39.0 °F 46% 30.17 in 10.0 mi SW 6.9 mph - N/A   Clear
7:53 PM 59.0 °F - 37.0 °F 44% 30.17 in 10.0 mi SW 6.9 mph - N/A   Clear
8:53 PM 61.0 °F - 35.1 °F 38% 30.17 in 10.0 mi Calm Calm - N/A   Clear
9:53 PM 63.0 °F - 26.1 °F 25% 30.19 in 10.0 mi North 10.4 mph - N/A   Clear
10:53 PM 57.0 °F - 30.9 °F 37% 30.20 in 10.0 mi Calm Calm - N/A   Clear
11:53 PM 51.1 °F - 30.9 °F 46% 30.21 in 10.0 mi Calm Calm - N/A   Clear